Home > Weather > Wetzlar > Past weeks

Flag for Germany Weather for the Past 2 Weeks in Wetzlar, Hesse, Germany

Now
37 °F

Broken clouds.


Feels Like: 29 °F
Forecast: 35 / 41 °F
Wind: 14 mph from West

Location: Hessen

Current Time: Feb 11, 2016 at 11:15:28 AM

Latest Report: Feb 11, 2016 at 10:50 AM


Visibility: N/A

Pressure: 29.62 "Hg

Humidity: 93%

Dew point: 36 °F

Location of WetzlarLocation

Historic Weather in Wetzlar — Graph

°F

Wetzlar Temperature Yesterday

Maximum temperature yesterday: 34 °F (at 11:50 AM)
Minimum temperature yesterday: 32 °F (at 7:50 AM)
Average temperature yesterday: 32 °F

High & Low Weather Summary for the Past Weeks

 TemperatureHumidityPressure
High50 °F (Feb 6, 1:50 PM)100% (Jan 28, 7:50 AM)30.27 "Hg (Jan 28, 7:50 AM)
Low30 °F (Feb 3, 5:20 PM)66% (Jan 27, 6:20 PM)28.91 "Hg (Feb 9, 5:20 PM)
Average39 °F94%29.84 "Hg
* Reported Jan 27 9:20 AM — Feb 11 9:50 AM, Wetzlar, Weather by CustomWeather, © 2016

Note: Actual official high and low records may vary slightly from our data, if they occured in-between our weather recording intervals... More about our weather records

Advertising

Wetzlar Weather History for the Previous 24 Hours

 ConditionsComfort  
Time TempWeatherWind HumidityBarometerVisibility
9:50 AM
Thu, Feb 11
34 °FBroken clouds.14 mph100%29.62 "Hg4 mi
9:20 AM34 °FBroken clouds.14 mph100%29.62 "Hg5 mi
8:50 AM34 °FBroken clouds.14 mph100%29.62 "Hg4 mi
8:20 AM32 °FBroken clouds.15 mph100%29.59 "HgN/A
7:50 AM32 °FBroken clouds.14 mph100%29.59 "Hg4 mi
8:50 PM
Wed, Feb 10
32 °FLight snow. Ice fog.12 mph100%29.42 "Hg2 mi
8:20 PM32 °FLight snow. Ice fog.13 mph100%29.42 "Hg2 mi
7:50 PM32 °FLight snow. Ice fog.13 mph100%29.42 "Hg2 mi
7:20 PM34 °FFog.12 mph100%29.42 "Hg3 mi
6:50 PM32 °FIce fog.8 mph100%29.42 "Hg1 mi
6:20 PM32 °FSnow. Ice fog.7 mph100%29.39 "Hg1 mi
5:50 PM32 °FSnow. Ice fog.7 mph100%29.39 "Hg1 mi
5:20 PM32 °FLight snow. Ice fog.8 mph100%29.36 "Hg1 mi
4:50 PM32 °FSnow. Ice fog.9 mph100%29.36 "Hg1 mi
4:20 PM32 °FLight snow. Ice fog.9 mph100%29.33 "Hg1 mi
3:50 PM32 °FSnow. Ice fog.8 mph100%29.33 "Hg1 mi
3:20 PM34 °FScattered showers. Broken clouds.15 mph100%29.33 "HgN/A
2:50 PM34 °FBroken clouds.13 mph100%29.33 "HgN/A
2:20 PM32 °FLight snow. More clouds than sun.15 mph100%29.30 "Hg1 mi
1:50 PM32 °FLight rain. Broken clouds.12 mph100%29.30 "Hg2 mi
1:20 PM34 °FChilly.15 mph93%29.30 "Hg1 mi
12:50 PM34 °FSnow. More clouds than sun.16 mph100%29.30 "Hg1 mi
12:20 PM34 °FSnow. More clouds than sun.14 mph100%29.30 "Hg1 mi
11:50 AM34 °FLight snow. More clouds than sun.15 mph100%29.30 "Hg1 mi
11:20 AM32 °FSnow. More clouds than sun.15 mph100%29.30 "Hg1 mi
Weather by CustomWeather, © 2016

See weather overviewHow to use our weather pages